DMSP 5D-2 F13 DEB, 40608

Orbit data source: Space-Track

DMSP 5D-2 F13 DEB, 40608 is space debris in SSO originally from a launch on Fri, 24 Mar 1995 UTC launched from the Air Force Western Test Range (AFWTR). Debris objects in space refer to the collection of defunct objects orbiting the Earth. Examples of debris include non-operational satellites, rocket bodies, and fragments generated from explosions, collisions, or faulty payload assembly.

Loading next visibility...
Identifier
40608, 1995-015FF
Orbit
SSO
Country
Flag of USUS
Related business
Manufacturer
Unknown
Mission
Spacecraft
Bus & Motor
Unknown
Mass
Unknown
Launch date (UTC)
1995-03-24 (31 years ago)
Launch vehicle
Unknown
Launch site
Air Force Western Test Range (AFWTR)
Object type
Payload
Rocket body
Debris
Shape & HBR
Unknown shape, 0.1 m
Radar Cross Section
Small (<0.1 m²)

Expand to show TLE details & history
Last TLE update: 2 days ago

TLE from 2 days ago
0 DMSP 5D-2 F13 DEB
1 40608U 95015FF  25302.83134012  .00000661  00000-0  29930-3 0  9991
2 40608  98.6277 318.3517 0030533 249.9408 109.8484 14.25068329546556
Epoch: 2025-10-29T19:57Z
TLE epoch observation values (Epoch: 2025-10-29T19:57:07.786Z)
Latitude
-0.00003°
Longitude
-19.32957°
Altitude
818.698 km
Speed
7.44 km/s
True Right ascension
21h 13m 24s
True Declination
0° 00' 00"
Sunlit
Object was in daylight at epoch
Visualization orbit readout
Latitude
Unknown
Longitude
Unknown
Altitude
Unknown
Speed
Unknown
Apparent Right ascension
Unknown
Apparent Declination
Unknown
Sunlit
N/A
Visualization observer readout
Local Sidereal Time
04:06:30
Azimuth
Unknown
Elevation
Unknown
Doppler factor
Unknown
Orbital elements
Apogee altitude
827.344 km
Perigee altitude
783.477 km
Semi-major axis
7,183.548 km
Eccentricity
0.00305
Inclination
98.6277°
RAAN
318.3517°
Arg. of periapsis
249.9408°
True anomaly
110.17707°
Mean anomaly
109.8484°
Eccentric anomaly
110.01278°
Mean motion
3.5648 °/min
Orbital period
100.99 mins
BSTAR
0.0002993
Loading maneuver chart data...
Computing Atmospheric mass density...

Documentation

Showing up to 5 results
|